Total_Precipitation_Accumulation
1.97 1.97 1.93 1.89 1.81 1.89 2.06 2.25 2.28 2.62 2.73 2.35 1.98 1.87 1.86 1.92 1.83 1.81 1.73 1.65 1.57 1.70 2.05 2.26 2.11 1.88 1.60 1.37 1.24 1.13 1.01 0.88 0.80 0.69 0.71 0.79 0.79 0.73 0.66 0.60 0.54 0.46 0.41
2.07 2.18 2.06 2.03 1.91 1.87 2.03 2.20 2.37 2.84 2.87 2.68 2.25 2.02 1.94 1.90 1.75 1.69 1.75 1.93 1.76 1.64 1.76 2.02 2.21 2.17 2.01 1.76 1.50 1.31 1.17 1.08 0.93 0.71 0.60 0.67 0.71 0.70 0.68 0.67 0.61 0.50 0.42
2.06 2.08 1.93 1.84 1.87 2.01 2.17 2.21 2.36 2.67 2.44 2.41 2.21 2.05 1.86 1.68 1.52 1.46 1.62 1.79 1.68 1.62 1.73 1.86 2.03 2.10 2.19 2.18 2.02 1.82 1.50 1.29 1.12 0.88 0.70 0.65 0.67 0.64 0.62 0.65 0.64 0.56 0.45
1.96 2.11 1.93 1.77 2.06 2.14 2.22 2.43 2.56 2.59 2.55 2.55 2.32 2.01 1.78 1.65 1.35 1.25 1.26 1.35 1.53 1.36 1.59 1.80 1.84 1.88 2.10 2.34 2.49 2.50 2.14 1.73 1.43 1.19 0.97 0.82 0.82 0.76 0.64 0.60 0.63 0.56 0.42
2.03 2.28 2.24 2.30 2.39 2.42 2.42 2.31 2.60 2.61 2.54 2.54 2.26 1.98 1.63 1.44 1.24 1.11 1.05 0.99 1.11 1.19 1.27 1.42 1.54 1.61 1.96 2.49 2.78 2.91 2.81 2.40 1.88 1.58 1.44 1.27 1.19 0.99 0.76 0.66 0.66 0.63 0.50
2.13 2.47 2.32 2.28 2.36 2.49 2.51 2.46 2.47 2.49 2.28 2.25 2.10 1.86 1.48 1.16 1.06 0.98 0.85 0.83 0.87 0.81 0.95 1.18 1.41 1.25 1.56 2.08 2.44 2.80 3.06 2.91 2.36 2.01 1.88 1.77 1.67 1.41 0.98 0.77 0.72 0.70 0.65
2.10 2.40 2.30 2.39 2.34 2.34 2.35 2.39 2.41 2.27 1.93 2.12 2.22 1.81 1.36 1.06 1.04 0.81 0.73 0.74 0.75 0.73 0.91 1.17 1.33 1.32 1.22 1.32 1.63 2.02 2.55 2.79 2.58 2.25 2.10 1.98 2.00 1.83 1.32 1.01 0.87 0.75 0.75
2.24 2.23 2.30 2.26 2.30 2.38 2.28 2.24 2.31 2.15 1.79 1.91 2.07 2.14 1.60 1.26 0.97 0.69 0.74 0.83 0.91 0.97 0.98 1.07 1.21 1.32 1.30 1.51 1.38 1.33 1.79 2.37 2.73 2.65 2.37 1.99 1.82 1.74 1.53 1.38 1.18 0.98 0.95
2.40 2.35 2.29 2.18 2.11 1.99 1.95 2.00 2.05 2.04 1.88 1.78 1.95 2.22 1.85 1.42 1.19 0.84 0.79 0.86 1.04 1.23 1.20 1.21 1.20 1.32 1.41 1.67 1.80 1.54 1.37 1.67 2.32 2.90 2.88 2.36 1.86 1.60 1.54 1.54 1.50 1.32 1.20
2.26 2.01 1.86 1.88 1.87 1.81 1.77 1.57 1.64 1.74 1.68 1.53 1.65 1.76 1.81 1.83 1.75 1.20 0.86 0.81 0.98 1.13 1.25 1.16 1.14 1.25 1.40 1.59 1.82 1.72 1.37 1.27 1.54 2.31 2.77 2.64 2.21 1.75 1.56 1.60 1.86 1.82 1.49
1.95 1.66 1.55 1.62 1.63 1.57 1.48 1.41 1.49 1.42 1.35 1.31 1.46 1.64 1.74 1.80 1.78 1.67 1.29 1.18 1.16 1.02 1.05 1.08 1.20 1.26 1.27 1.51 1.79 1.62 1.54 1.42 1.33 1.45 1.81 2.10 2.21 2.02 1.89 2.05 2.38 2.53 2.26
1.61 1.37 1.26 1.37 1.46 1.48 1.44 1.38 1.40 1.30 1.30 1.40 1.39 1.48 1.66 1.64 1.65 1.75 1.49 1.36 1.27 1.03 1.02 1.13 1.16 1.30 1.33 1.44 1.46 1.58 1.50 1.28 1.16 1.12 1.21 1.44 1.70 1.81 1.89 2.09 2.51 2.87 2.95
1.33 1.25 1.27 1.34 1.36 1.41 1.34 1.33 1.31 1.34 1.44 1.49 1.44 1.42 1.51 1.52 1.57 1.72 1.69 1.52 1.41 1.24 1.27 1.27 1.13 1.11 1.08 1.20 1.28 1.29 1.14 1.03 0.91 0.86 0.88 0.96 1.10 1.33 1.56 1.81 2.19 2.59 2.86
1.35 1.40 1.37 1.29 1.26 1.30 1.23 1.39 1.32 1.36 1.47 1.50 1.35 1.51 1.53 1.52 1.69 1.85 1.91 1.90 1.72 1.50 1.44 1.40 1.29 1.17 1.13 1.14 1.15 1.11 0.97 0.89 0.73 0.68 0.68 0.69 0.77 0.91 1.12 1.31 1.57 1.86 2.11
1.46 1.57 1.52 1.45 1.37 1.39 1.47 1.65 1.62 1.64 1.77 1.72 1.68 1.81 1.74 1.62 1.67 1.74 1.84 1.93 2.01 1.79 1.57 1.50 1.41 1.22 1.15 1.18 1.13 1.02 1.07 0.94 0.75 0.65 0.60 0.56 0.60 0.70 0.76 0.84 1.00 1.19 1.38
1.38 1.54 1.62 1.58 1.52 1.52 1.64 1.78 1.79 1.91 2.00 1.96 1.98 2.05 1.98 1.83 1.84 1.88 1.87 1.97 2.12 2.03 1.72 1.45 1.35 1.22 1.19 1.08 1.12 1.04 1.02 0.94 0.81 0.70 0.60 0.55 0.56 0.58 0.58 0.63 0.72 0.83 0.97
1.36 1.44 1.56 1.63 1.58 1.57 1.66 1.73 1.71 1.93 2.03 2.03 1.97 1.93 1.85 1.89 1.89 1.84 1.91 2.03 2.17 2.18 1.88 1.53 1.52 1.52 1.50 1.39 1.35 1.25 1.13 1.06 0.89 0.80 0.69 0.64 0.59 0.59 0.59 0.60 0.62 0.66 0.72
1.44 1.48 1.56 1.58 1.47 1.46 1.59 1.63 1.67 1.82 1.92 1.87 1.80 1.79 1.64 1.68 1.74 1.66 1.75 1.82 1.90 2.09 2.03 1.82 1.82 1.85 1.82 1.69 1.62 1.56 1.39 1.18 0.98 0.92 0.79 0.71 0.68 0.63 0.59 0.59 0.62 0.67 0.71
1.45 1.49 1.50 1.50 1.51 1.59 1.66 1.65 1.62 1.59 1.58 1.63 1.78 1.85 1.66 1.64 1.58 1.59 1.61 1.58 1.64 1.78 1.90 1.86 1.86 1.93 1.89 1.85 1.74 1.56 1.45 1.32 1.05 0.98 0.93 0.84 0.76 0.70 0.64 0.63 0.64 0.69 0.75
1.35 1.43 1.47 1.53 1.56 1.60 1.61 1.64 1.65 1.57 1.49 1.48 1.55 1.59 1.57 1.57 1.53 1.61 1.56 1.54 1.55 1.66 1.76 1.78 1.81 1.93 1.95 1.86 1.86 1.68 1.66 1.54 1.38 1.15 1.07 0.96 0.93 0.91 0.84 0.75 0.68 0.68 0.77
1.37 1.44 1.49 1.50 1.45 1.45 1.37 1.36 1.39 1.35 1.38 1.33 1.26 1.25 1.27 1.36 1.36 1.37 1.29 1.41 1.54 1.60 1.63 1.65 1.68 1.84 2.02 2.07 1.91 1.83 1.89 1.85 1.69 1.43 1.32 1.14 1.03 0.96 0.91 0.86 0.80 0.75 0.76
1.36 1.43 1.43 1.48 1.45 1.22 1.31 1.31 1.31 1.43 1.50 1.47 1.38 1.29 1.22 1.19 1.13 1.07 1.05 1.13 1.32 1.46 1.50 1.57 1.57 1.71 1.92 2.12 2.18 2.14 2.03 1.96 1.91 1.77 1.70 1.56 1.34 1.23 1.13 1.03 0.96 0.91 0.87
1.49 1.48 1.43 1.41 1.42 1.45 1.47 1.33 1.20 1.20 1.29 1.34 1.33 1.32 1.18 1.08 1.15 1.09 1.10 1.08 1.09 1.19 1.27 1.40 1.48 1.52 1.66 1.88 2.11 2.08 2.16 2.20 2.18 2.15 2.16 2.07 1.79 1.58 1.37 1.20 1.05 0.86 0.79
1.69 1.66 1.59 1.49 1.52 1.54 1.45 1.25 1.19 1.14 1.19 1.23 1.26 1.28 1.27 1.19 1.18 1.25 1.26 1.21 1.11 1.08 1.11 1.13 1.18 1.30 1.50 1.75 2.03 2.03 2.05 2.13 2.18 2.19 2.24 2.25 2.04 1.86 1.62 1.43 1.27 1.02 0.85
1.76 1.71 1.68 1.71 1.67 1.71 1.70 1.48 1.40 1.30 1.33 1.35 1.35 1.33 1.29 1.20 1.27 1.23 1.20 1.20 1.15 1.10 1.09 1.13 1.12 1.25 1.45 1.55 1.74 1.86 1.86 1.90 1.86 1.80 1.94 2.13 2.13 2.06 1.90 1.64 1.38 1.17 0.94
1.82 1.86 1.86 1.86 1.86 1.92 2.08 1.85 1.64 1.51 1.54 1.51 1.55 1.47 1.40 1.29 1.29 1.22 1.11 1.14 1.12 1.13 1.22 1.21 1.17 1.18 1.24 1.40 1.55 1.64 1.79 1.92 1.83 1.70 1.50 1.60 1.77 1.94 2.07 1.90 1.64 1.42 1.27